This is the latest recevied weather packets stored in our database for station/object XE2RCS-21. If no packets are shown the sender has not sent any weather packets the latest 10 day(s).
| Time | Temp. | Humidity | Pressure | Rain* | Wind** | Luminosity | Snow |
|---|---|---|---|---|---|---|---|
| 1777795232 | 11.67° C | 100% | 1004.2 hPa | - | - | - | - |
| 1777793432 | 11.67° C | 100% | 1004.5 hPa | - | - | - | - |
| 1777791632 | 11.67° C | 100% | 1013.1 hPa | - | - | - | - |
| 1777789831 | 11.67° C | 100% | 1013.1 hPa | - | - | - | - |
| 1777788031 | 11.67° C | 100% | 1013.4 hPa | - | - | - | - |
| 1777786231 | 12.22° C | 100% | 1013.6 hPa | - | - | - | - |
| 1777784431 | 12.22° C | 100% | 1013.6 hPa | - | - | - | - |
| 1777782631 | 12.78° C | 100% | 1013.8 hPa | - | - | - | - |
| 1777780830 | 12.78° C | 100% | 1013.4 hPa | - | - | - | - |
| 1777779032 | 12.78° C | 100% | 1013.2 hPa | - | - | - | - |
| 1777777231 | 12.78° C | 100% | 1013.3 hPa | - | - | - | - |
| 1777775431 | 12.78° C | 100% | 1013.1 hPa | - | - | - | - |
| 1777773631 | 12.78° C | 100% | 1012.8 hPa | - | - | - | - |
| 1777771831 | 12.78° C | 100% | 1012.3 hPa | - | - | - | - |
| 1777770031 | 13.33° C | 100% | 1012.4 hPa | - | - | - | - |
| 1777768231 | 13.33° C | 100% | 1012.3 hPa | - | - | - | - |
| 1777766431 | 13.33° C | 100% | 1011.4 hPa | - | - | - | - |
| 1777764630 | 13.89° C | 100% | 1010.6 hPa | - | - | - | - |
| 1777762830 | 13.33° C | 100% | 1009.9 hPa | - | - | - | - |
| 1777761030 | 13.89° C | 100% | 999 hPa | - | - | - | - |
| 1777759229 | 12.78° C | 100% | 993.9 hPa | - | - | - | - |
| 1777757432 | 12.78° C | 100% | 996.4 hPa | - | - | - | - |
| 1777755631 | 13.33° C | 100% | 995.7 hPa | - | - | - | - |
| 1777753831 | 12.78° C | 100% | 995.3 hPa | - | - | - | - |
| 1777752031 | 12.78° C | 100% | 994.2 hPa | - | - | - | - |
* Rain since midnight (hover to see other rain measurements)
** Current wind speed in m/s (hover to see current wind gust speed)